Regional Weather Roundup
Issued by NWS

Home | Current Version | Previous Version | Graphics & Text | Print | Product List | Glossary On
Versions: 1 2 3 4 5 6 7 8 9 10 11 12 13 14 15 16 17 18 19 20 21 22 23 24 25 26 27 28 29 30 31 32 33 34 35 36 37 38 39 40 41 42 43 44 45 46 47 48 49 50
211
ASUS44 KLIX 190407
RWRLA
LOUISIANA WEATHER ROUNDUP
NATIONAL WEATHER SERVICE NEW ORLEANS LA
1100 PM CDT SAT APR 18 2015

NOTE: "FAIR" INDICATES FEW OR NO CLOUDS BELOW 12,000 FEET WITH NO
      SIGNIFICANT WEATHER AND/OR OBSTRUCTIONS TO VISIBILITY.
      SKY/WX - SKY CONDITION AND SIGNIFICANT WEATHER.
      TMP - AIR TEMPERATURE.    DP   - DEWPOINT TEMPERATURE.
      RH  - RELATIVE HUMIDITY.  PRES - PRESSURE.
      HX  - HEAT INDEX.         WCI  - WIND CHILL INDEX.

*  THESE STATIONS ARE NOT NWS OR FAA STATIONS AND ARE NOT UNDER
   NWS QUALITY CONTROL.

LAZ040-048-061>063-065-066-069-190500-
SOUTHEAST LOUISIANA

CITY           SKY/WX    TMP DP  RH WIND       PRES   REMARKS
N.O. AUDUBON     N/A     71  70  98 MISG        N/A
N.O. INTL ARPT MOCLDY    70  67  90 SE10      29.80S
N.O. LAKEFRONT MOCLDY    73  68  84 S18       29.80F
SLIDELL        CLOUDY    71  70  96 S10       29.79F
BATON ROUGE    MOCLDY    71  69  93 SE8       29.80S FOG
BOOTHVILLE     CLOUDY    70  69  97 SE12      29.83F
BELLE CHASSE   CLOUDY    71  68  90 SE9G18    29.78F
BOGALUSA*        N/A     73  68  86 S9        29.81F
GALLIANO*      CLOUDY    68  67  96 SE3       29.81F
NEW ROADS*     CLOUDY    71  69  93 S5        29.79S
GONZALES*      CLOUDY    72  72 100 S9        29.80R
HAMMOND*       CLOUDY    72  68  88 S10G16    29.81F
HOUMA*         PTCLDY    71  69  94 SE10      29.79F
PORT FOURCHON* NOT AVBL

$$

LAZ041-044-053-054-190500-
SOUTHWEST LOUISIANA

CITY           SKY/WX    TMP DP  RH WIND       PRES   REMARKS
LAKE CHARLES   CLOUDY    70  69  97 SE3       29.77S
LAFAYETTE      CLOUDY    73  70  90 S5        29.80R
PATTERSON      CLOUDY    72  68  88 S10G16    29.81R
SALT POINT       N/A     71  70  96 SE6       29.79S
NEW IBERIA     MOCLDY    72  70  93 S3        29.81R
CHENAULT AIRPK CLOUDY    69  69  99 CALM      29.78S FOG

$$

LAZ027-028-190500-
CENTRAL LOUISIANA

CITY           SKY/WX    TMP DP  RH WIND       PRES   REMARKS
FORT POLK      CLOUDY    68  67  96 SE5       29.76S
ALEXANDRIA INT CLOUDY    68  67  96 S6        29.76S
ALEXANDRIA     CLOUDY    68  67  96 CALM      29.78S

$$

LAZ001-002-190500-
NORTHWEST LOUISIANA

CITY           SKY/WX    TMP DP  RH WIND       PRES   REMARKS
SHREVEPORT     PTCLDY    67  65  93 E5        29.77F
BARKSDALE AFB  MOCLDY    65  65 100 SE1       29.77F
DTN SHREVEPORT CLEAR     65  62  90 CALM      29.78F

$$

LAZ014-016-190500-
NORTHEAST LOUISIANA

CITY           SKY/WX    TMP DP  RH WIND       PRES   REMARKS
MONROE         PTCLDY    67  66  97 S3        29.77F
TALLULAH       CLOUDY    67  65  93 CALM      29.78F

$$




USA.gov is the U.S. government's official web portal to all federal, state and local government web resources and services.